Location: Quesnel
(52.9830°N, 122.4830°W)
Time: 00:27:23
(UTC-07:00)

ISS - All Passes

Search period start: 24 October 2017 00:00
Search period end: 03 November 2017 00:00
Orbit: 400 x 408 km, 51.6° (Epoch: 24 October)

Date Brightness Start Highest point End Pass type
(mag) Time Alt. Az. Time Alt. Az. Time Alt. Az.
24 Oct - 09:14:51 10° S 09:16:38 14° SE 09:18:26 10° ESE daylight
24 Oct - 10:49:25 10° SW 10:52:33 44° SSE 10:55:41 10° E daylight
24 Oct - 12:25:35 10° W 12:28:50 71° S 12:32:06 10° E daylight
24 Oct - 14:02:02 10° W 14:05:09 41° SSW 14:08:15 10° SE daylight
24 Oct - 15:39:30 10° WSW 15:41:00 13° SW 15:42:29 10° SSW daylight
25 Oct - 09:57:19 10° SW 10:00:17 33° SSE 10:03:15 10° E daylight
25 Oct - 11:33:15 10° WSW 11:36:30 68° S 11:39:46 10° E daylight
25 Oct - 13:09:39 10° W 13:12:51 53° SSW 13:16:04 10° ESE daylight
25 Oct - 14:46:29 10° W 14:48:52 19° SW 14:51:15 10° SSE daylight
26 Oct - 09:05:24 10° SSW 09:08:03 23° SSE 09:10:44 10° E daylight
26 Oct - 10:40:56 10° WSW 10:44:10 60° SSE 10:47:24 10° E daylight
26 Oct - 12:17:17 10° W 12:20:32 64° S 12:23:45 10° ESE daylight
26 Oct - 13:53:52 10° W 13:56:41 27° SSW 13:59:30 10° SSE daylight
27 Oct - 08:13:47 10° S 08:15:53 16° SE 08:17:59 10° ESE daylight
27 Oct - 09:48:40 10° WSW 09:51:50 48° SSE 09:55:00 10° E daylight
27 Oct - 11:24:54 10° W 11:28:10 70° S 11:31:24 10° E daylight
27 Oct - 13:01:23 10° W 13:04:26 37° SSW 13:07:28 10° SE daylight
27 Oct - 14:39:22 10° SW 14:40:13 11° SW 14:41:03 10° SSW daylight
28 Oct - 07:23:07 10° SSE 07:23:45 10° SE 07:24:24 10° SE visible
28 Oct - 08:56:30 10° SW 08:59:31 36° SSE 09:02:34 10° E daylight
28 Oct - 10:32:32 10° W 10:35:47 70° S 10:39:02 10° E daylight
28 Oct - 12:08:56 10° W 12:12:06 49° SSW 12:15:17 10° ESE daylight
28 Oct - 13:45:55 10° WSW 13:48:04 16° SW 13:50:13 10° S daylight
29 Oct - 08:04:27 10° SSW 08:07:15 26° SSE 08:10:03 10° E daylight
29 Oct - 09:40:10 10° WSW 09:43:24 63° S 09:46:38 10° E daylight
29 Oct - 11:16:31 10° W 11:19:45 61° S 11:22:59 10° ESE daylight
29 Oct - 12:53:10 10° W 12:55:51 24° SSW 12:58:33 10° SSE daylight
30 Oct - 07:12:41 10° SSW 07:15:01 18° SE 07:17:21 10° E visible
30 Oct - 08:47:50 10° WSW 08:51:01 52° SSE 08:54:13 10° E daylight
30 Oct - 10:24:07 10° W 10:27:22 69° S 10:30:37 10° ESE daylight
30 Oct - 12:00:36 10° W 12:03:35 33° SSW 12:06:34 10° SE daylight
31 Oct - 06:21:27 10° SSE 06:22:50 12° SE 06:24:13 10° ESE visible
31 Oct - 07:55:34 10° SW 07:58:39 40° SSE 08:01:46 10° E daylight
31 Oct - 09:31:41 10° W 09:34:56 71° S 09:38:12 10° E daylight
31 Oct - 11:08:06 10° W 11:11:15 45° SSW 11:14:23 10° SE daylight
31 Oct - 12:45:18 10° WSW 12:47:09 14° SW 12:49:00 10° S daylight
01 Nov - 07:03:27 10° SW 07:06:20 29° SSE 07:09:14 10° E visible
01 Nov - 08:39:17 10° WSW 08:42:31 66° S 08:45:46 10° E daylight
01 Nov - 10:15:39 10° W 10:18:52 57° SSW 10:22:04 10° ESE daylight
01 Nov - 11:52:22 10° W 11:54:55 21° SSW 11:57:28 10° SSE daylight
02 Nov - 06:11:32 10° SSW 06:14:03 21° SSE 06:16:34 10° E visible
02 Nov - 07:46:54 10° WSW 07:50:05 56° SSE 07:53:18 10° E daylight
02 Nov - 09:23:11 10° W 09:26:26 67° S 09:29:41 10° ESE daylight
02 Nov - 10:59:43 10° W 11:02:38 30° SSW 11:05:32 10° SE daylight
